COSMOS 970 DEB, 10565

Orbit data source: Space-Track

COSMOS 970 DEB, 10565 is space debris in LEO originally from a launch on Wed, 21 Dec 1977 UTC launched from the Tyuratam Missile And Space Complex (TTMTR). Debris objects in space refer to the collection of defunct objects orbiting the Earth. Examples of debris include non-operational satellites, rocket bodies, and fragments generated from explosions, collisions, or faulty payload assembly.

Loading next visibility...
Identifier
10565, 1977-121G
Orbit
LEO
Country
Flag of CISCIS
Related business
Manufacturer
Unknown
Mission
Spacecraft
Bus & Motor
Unknown
Mass
Unknown
Launch date (UTC)
1977-12-21 (48 years ago)
Launch vehicle
Unknown
Launch site
Tyuratam Missile And Space Complex (TTMTR)
Object type
Payload
Rocket body
Debris
Shape & HBR
Unknown shape, 0.1 m
Radar Cross Section
Medium (>0.1 m² and <1 m²)

Expand to show TLE details & history
Last TLE update: 12 hours ago

TLE from 12 hours ago
0 COSMOS 970 DEB
1 10565U 77121G   26171.41250528  .00000137  00000-0  24846-3 0  9997
2 10565  65.8291  46.3406 0123989 237.8433 305.5310 13.66098024409611
Epoch: 2026-06-20T09:54Z
TLE epoch observation values (Epoch: 2026-06-20T09:54:00.456Z)
Latitude
-2.12315°
Longitude
170.1596°
Altitude
963.385 km
Speed
7.396 km/s
True Right ascension
15h 09m 09s
True Declination
-2° 06' 39"
Sunlit
Object was in full shadow at epoch
Visualization orbit readout
Latitude
Unknown
Longitude
Unknown
Altitude
Unknown
Speed
Unknown
Apparent Right ascension
Unknown
Apparent Declination
Unknown
Sunlit
N/A
Visualization observer readout
Local Sidereal Time
08:33:46
Azimuth
Unknown
Elevation
Unknown
Doppler factor
Unknown
Orbital elements
Apogee altitude
1,103.768 km
Perigee altitude
920.505 km
Semi-major axis
7,390.274 km
Eccentricity
0.0124
Inclination
65.8291°
RAAN
46.3406°
Arg. of periapsis
237.8433°
True anomaly
304.36432°
Mean anomaly
305.531°
Eccentric anomaly
304.94871°
Mean motion
3.41627 °/min
Orbital period
105.38 mins
BSTAR
0.00024846
Loading maneuver chart data...
Computing Atmospheric mass density...
Loading historical data...
Loading historical data...
Loading historical data...
Loading historical data...
Loading historical data...
Loading historical data...
Loading historical data...

Documentation

Showing up to 5 results
|